Wind_Speed
15 14 15 16 16 16 17 17 17 18 17 14 14 14 12 8 10 8 9 13 14 15 17 18 21 19 19 19 18 17 11 11 9 10 11 11 15 20 26 27 29 29 33 43 48
16 15 14 16 16 17 15 16 17 18 18 17 14 13 14 11 9 10 9 12 14 16 18 17 18 17 18 18 18 15 13 13 14 12 13 13 19 24 29 28 28 33 39 44 49
15 16 16 14 14 17 18 17 16 17 17 17 17 15 13 12 11 6 12 13 14 17 17 18 18 17 17 18 16 16 14 11 13 12 13 15 22 27 32 29 33 45 50 59 56
14 15 16 17 15 16 16 18 18 17 17 16 16 16 13 10 8 12 13 15 15 17 18 18 17 15 15 16 14 14 15 12 13 11 13 16 23 28 31 28 35 42 50 60 53
17 16 17 18 18 16 16 18 18 18 17 16 16 16 14 11 11 13 12 14 15 16 16 16 15 14 14 13 13 13 11 10 13 15 16 16 22 25 25 30 34 41 53 56 50
19 19 17 16 18 18 16 17 19 18 17 16 14 15 13 13 13 12 12 12 15 16 17 16 14 14 13 11 12 14 10 11 11 16 15 16 21 25 28 30 35 44 54 50 46
18 21 22 21 21 19 17 16 19 18 17 16 16 13 12 13 11 11 12 13 15 16 15 15 13 13 14 10 11 12 11 13 13 10 11 16 22 21 24 30 38 48 52 43 41
23 25 21 22 25 26 28 21 20 18 17 16 17 11 16 9 9 13 15 17 16 16 14 13 11 12 17 14 8 12 13 18 11 10 11 19 24 23 25 33 44 50 47 38 32
19 24 20 19 22 24 27 30 27 20 20 19 15 17 13 11 16 18 21 18 16 15 13 11 10 11 13 14 6 9 17 16 11 11 15 16 21 23 26 34 44 49 44 37 30
21 20 21 17 20 24 25 27 20 23 22 21 20 16 11 17 19 19 24 20 15 13 12 11 9 11 15 17 9 14 18 19 14 17 13 16 19 21 20 38 43 48 44 37 33
16 20 25 18 17 22 28 29 29 28 27 22 24 26 19 23 23 25 25 17 14 12 11 8 6 11 17 19 18 17 16 16 20 9 12 17 15 14 21 38 45 49 48 38 35
18 20 20 19 23 22 23 24 27 33 35 32 31 31 36 34 33 21 19 14 11 11 10 6 4 11 14 16 14 14 13 15 9 7 8 9 14 10 19 39 43 48 51 42 36
16 19 20 21 22 19 22 25 21 26 28 28 23 25 24 22 19 17 15 12 10 10 9 6 4 9 12 14 11 12 17 20 20 6 2 9 9 5 12 35 40 43 48 44 39
17 18 20 19 25 19 18 24 19 23 19 15 11 9 8 7 11 12 10 9 8 8 7 3 4 9 11 15 16 12 23 18 7 4 2 6 5 6 21 36 41 47 49 47 39
23 21 20 17 23 18 23 20 19 18 5 4 6 5 5 5 4 7 8 7 7 7 6 4 4 7 11 16 14 16 19 3 1 2 2 4 5 6 30 43 48 48 49 47 38
25 25 22 20 19 17 16 22 15 5 6 4 4 3 3 5 8 8 8 7 7 7 6 5 3 5 11 14 10 22 8 2 3 1 1 7 5 7 32 45 46 44 45 48 40
24 23 22 21 16 17 19 17 7 6 4 5 7 11 11 12 12 10 10 9 4 5 6 5 2 6 11 13 6 16 7 2 3 3 4 12 3 2 25 38 43 45 44 45 41
23 22 26 18 13 20 18 11 8 7 11 15 10 11 11 9 12 12 10 9 5 6 6 3 2 5 10 13 10 16 15 5 4 2 5 6 4 6 18 35 36 38 39 39 39
38 28 27 21 25 22 19 12 7 9 12 14 16 17 15 16 12 7 9 9 6 4 2 2 2 3 7 10 15 8 8 8 0 2 2 5 5 8 19 29 33 36 34 37 40
28 33 28 24 19 25 22 21 18 18 20 18 17 9 9 8 10 5 6 6 7 3 3 3 2 1 4 4 11 9 11 4 4 4 5 5 6 8 25 35 35 36 36 35 37
28 23 28 20 16 22 24 23 25 22 17 13 12 13 16 13 11 7 5 5 8 4 3 4 2 2 2 2 6 8 6 4 3 2 4 3 4 14 20 32 31 32 33 33 35
31 30 23 20 22 22 29 26 26 22 19 19 16 17 18 14 15 13 10 7 5 5 4 3 3 1 1 2 3 5 6 6 1 2 4 3 6 19 20 29 25 27 29 28 30
31 34 35 21 29 29 30 28 25 22 19 15 13 13 14 15 10 17 14 9 9 6 3 3 2 0 1 1 5 4 5 5 3 4 4 2 6 21 24 23 20 23 25 25 25
25 27 35 35 36 34 31 30 23 25 20 17 18 16 16 17 20 7 14 11 9 8 5 5 3 3 3 5 8 9 8 7 6 4 5 10 16 16 19 19 17 19 22 23 23
29 33 30 24 27 36 30 30 21 17 14 13 12 14 14 13 22 21 9 7 8 7 7 5 4 5 7 10 11 10 9 10 10 10 7 15 19 14 19 22 22 17 20 19 17
30 32 35 37 37 31 26 30 21 21 21 17 16 13 13 16 14 14 14 11 10 7 8 7 5 6 9 8 7 11 11 10 11 11 12 13 15 16 18 20 16 13 15 16 15
25 33 30 26 33 31 31 27 19 14 16 17 15 14 15 17 17 15 11 13 8 7 5 7 5 5 3 5 12 7 2 4 6 7 10 10 12 14 15 17 14 10 14 16 15
Wind_Direction
314 313 316 317 319 323 328 332 332 329 329 328 329 324 314 311 306 306 316 327 327 332 337 340 340 338 349 353 356 355 353 341 326 314 310 320 325 327 330 329 321 322 320 315 313
301 304 311 313 314 314 317 322 326 325 327 325 323 324 316 313 303 301 314 325 330 336 339 344 329 339 350 353 355 357 356 343 330 318 316 338 337 344 337 329 327 326 320 324 324
307 308 305 303 307 311 312 315 321 321 323 325 321 318 316 311 303 297 322 325 337 338 339 338 333 348 352 352 352 353 354 349 332 325 322 338 340 341 339 328 327 330 332 329 324
306 308 307 303 302 302 306 309 316 316 317 320 318 313 312 308 309 308 319 326 341 336 337 333 339 349 354 351 351 1 354 354 342 334 324 343 337 337 335 327 321 317 324 323 319
304 308 306 305 299 295 301 304 306 309 312 314 315 310 307 305 303 298 306 329 336 334 330 332 342 351 352 349 354 357 346 352 332 325 329 337 330 328 328 324 318 321 324 325 320
303 301 300 302 304 297 299 305 302 301 307 307 311 309 304 313 307 296 307 332 330 329 328 335 342 352 350 353 0 344 347 336 327 316 318 318 317 323 320 323 326 327 325 326 324
317 304 299 298 299 300 296 300 298 297 300 305 307 309 305 315 310 301 312 325 324 323 326 332 342 350 354 356 344 348 342 340 316 339 308 305 311 313 324 337 333 330 332 329 328
317 327 315 315 301 289 285 297 301 296 297 301 308 318 311 320 323 321 316 314 314 315 320 324 333 344 5 359 345 2 345 344 341 344 313 316 310 321 328 336 341 340 336 334 329
316 327 318 317 310 299 296 284 277 295 297 297 292 305 308 306 321 326 319 304 304 308 315 312 323 356 8 357 360 342 345 347 348 320 304 308 310 319 327 339 343 345 345 340 333
323 329 334 322 313 310 294 282 278 269 285 287 292 286 279 303 309 307 310 294 297 303 307 304 332 352 356 11 5 344 343 340 337 316 303 303 312 320 336 344 349 354 350 349 345
308 315 322 326 323 317 301 293 285 278 268 277 288 286 287 301 304 304 300 279 289 294 294 297 334 348 4 3 354 347 333 331 338 323 295 309 310 324 352 350 355 358 357 357 350
307 308 328 327 321 305 325 313 290 282 281 277 278 283 286 292 288 289 276 272 280 288 295 292 329 357 4 358 350 339 333 331 343 335 298 318 309 321 357 360 0 358 1 357 355
286 298 309 321 311 324 314 324 306 293 297 290 272 267 273 281 270 263 256 269 281 282 289 277 322 351 0 352 353 342 342 332 321 351 334 324 292 289 340 359 2 3 4 360 358
291 295 298 318 309 316 320 316 314 305 300 282 276 263 267 280 258 248 251 268 271 280 296 265 314 353 352 354 359 348 339 321 306 346 352 324 287 261 337 357 3 6 5 1 359
285 286 288 298 296 310 316 310 319 313 292 285 258 274 272 242 260 239 257 270 279 277 276 279 291 346 348 1 3 346 336 322 303 46 333 339 285 325 352 358 4 6 4 3 5
272 288 285 294 286 293 301 321 319 304 251 263 256 221 238 280 262 266 262 274 285 277 264 287 275 344 3 1 10 357 345 140 125 23 68 2 335 346 7 358 359 4 4 4 6
282 284 271 279 288 296 293 300 300 225 274 268 252 255 262 251 262 263 259 260 268 281 248 286 266 350 3 8 12 8 29 349 340 4 217 336 325 353 6 359 359 360 3 5 5
277 268 274 265 280 284 276 269 229 252 249 276 265 265 251 259 267 260 253 247 256 270 286 244 263 358 1 17 7 23 42 59 241 319 299 346 326 317 340 355 356 0 4 2 4
270 268 252 264 262 280 273 241 261 269 266 268 289 279 266 252 244 266 260 250 247 261 301 257 191 352 8 19 20 6 25 35 4 335 326 314 306 320 335 347 355 2 5 6 6
253 257 253 234 258 273 260 259 263 272 282 278 291 264 254 265 242 235 255 257 226 252 302 261 215 253 354 18 20 27 22 26 14 37 329 306 295 302 337 349 354 1 5 7 8
248 260 254 253 258 263 255 262 280 282 282 276 269 266 272 246 227 221 253 253 232 265 295 305 257 228 334 13 25 21 32 35 61 46 156 295 301 336 333 345 350 1 3 4 8
245 254 252 244 254 268 256 259 281 276 286 271 267 274 271 260 222 215 237 245 234 260 284 292 238 258 251 311 342 12 26 29 35 254 226 242 288 346 336 344 346 358 1 6 5
241 246 249 256 257 262 256 266 269 270 275 262 256 273 272 247 219 219 234 251 252 249 248 289 248 188 357 292 307 315 348 342 320 288 223 161 315 342 335 340 345 357 360 5 4
254 240 247 253 245 255 251 257 271 261 273 258 260 263 262 236 212 212 223 239 234 241 261 281 254 272 235 298 297 293 307 299 275 258 282 272 317 340 329 344 359 355 358 3 2
238 245 242 243 250 254 252 245 263 260 255 252 258 262 260 237 219 215 216 227 245 248 258 261 273 275 275 293 294 292 295 289 280 272 266 314 322 345 340 348 357 356 353 360 3
249 230 245 251 253 247 249 245 257 258 254 261 258 267 251 227 202 207 213 228 254 247 245 257 272 291 297 284 285 297 290 285 278 271 298 320 331 348 341 348 0 358 353 360 7
257 226 243 251 245 257 253 254 254 264 253 256 257 253 243 208 192 201 211 220 234 241 251 258 265 305 278 290 310 284 277 286 283 296 308 323 338 343 345 344 358 4 359 4 11
Height
3142 3140 3139 3137 3136 3134 3132 3130 3127 3125 3122 3119 3117 3115 3113 3112 3110 3109 3108 3107 3104 3100 3098 3094 3091 3089 3084 3081 3079 3077 3077 3075 3073 3073 3072 3070 3068 3065 3061 3057 3053 3049 3044 3035 3028
3138 3137 3135 3135 3133 3132 3129 3127 3125 3123 3121 3118 3115 3112 3111 3110 3108 3107 3106 3103 3101 3098 3096 3094 3091 3087 3082 3079 3077 3076 3074 3073 3071 3069 3067 3066 3064 3060 3057 3052 3048 3044 3039 3030 3019
3135 3133 3132 3131 3129 3129 3127 3125 3122 3120 3118 3115 3114 3110 3108 3106 3106 3104 3103 3100 3097 3095 3093 3090 3088 3083 3079 3077 3075 3072 3072 3070 3068 3066 3064 3063 3060 3057 3051 3045 3040 3031 3023 3016 3008
3131 3130 3129 3128 3126 3125 3123 3123 3120 3117 3116 3112 3110 3108 3106 3104 3106 3101 3100 3098 3094 3092 3090 3087 3084 3081 3078 3075 3072 3071 3068 3068 3066 3065 3063 3060 3057 3052 3049 3044 3037 3029 3021 3011 2999
3128 3127 3127 3125 3124 3122 3120 3118 3117 3116 3112 3109 3107 3105 3103 3102 3101 3099 3097 3095 3092 3090 3088 3085 3082 3078 3076 3073 3070 3068 3068 3066 3063 3061 3059 3057 3054 3052 3047 3042 3035 3026 3016 3004 2992
3125 3124 3123 3122 3120 3119 3117 3115 3114 3112 3110 3107 3103 3102 3100 3100 3098 3096 3095 3091 3090 3088 3085 3082 3079 3076 3073 3070 3068 3067 3064 3063 3061 3058 3056 3054 3051 3048 3044 3038 3031 3022 3011 2997 2985
3123 3121 3120 3119 3118 3116 3114 3111 3111 3108 3106 3103 3101 3098 3097 3096 3094 3094 3092 3089 3088 3085 3083 3080 3077 3075 3071 3067 3065 3063 3062 3061 3058 3055 3054 3051 3048 3045 3039 3034 3027 3017 3003 2992 2981
3119 3117 3114 3113 3114 3112 3111 3108 3107 3105 3102 3100 3098 3094 3094 3092 3091 3090 3089 3087 3085 3083 3080 3078 3075 3072 3067 3065 3063 3060 3058 3056 3055 3053 3053 3049 3043 3041 3035 3030 3022 3010 2998 2988 2980
3115 3113 3110 3109 3107 3106 3105 3103 3103 3101 3098 3096 3094 3093 3091 3090 3090 3087 3087 3085 3083 3080 3078 3076 3074 3070 3068 3064 3061 3058 3056 3054 3053 3051 3049 3047 3042 3038 3033 3030 3020 3007 2994 2984 2976
3113 3110 3107 3105 3103 3102 3100 3099 3097 3097 3095 3092 3090 3092 3089 3087 3086 3084 3083 3082 3080 3076 3075 3074 3071 3068 3065 3062 3060 3056 3052 3050 3049 3048 3045 3042 3040 3036 3034 3026 3016 3004 2993 2982 2972
3108 3107 3105 3102 3100 3098 3096 3095 3096 3094 3090 3088 3087 3085 3083 3082 3081 3080 3079 3078 3077 3075 3073 3070 3068 3065 3061 3057 3055 3053 3050 3049 3047 3043 3041 3040 3038 3035 3033 3024 3012 3001 2991 2980 2971
3104 3102 3102 3099 3096 3095 3092 3091 3089 3088 3084 3082 3081 3079 3076 3074 3075 3075 3075 3075 3073 3071 3069 3068 3064 3062 3059 3057 3055 3052 3050 3047 3044 3042 3039 3038 3036 3034 3032 3023 3013 3000 2989 2979 2970
3100 3099 3097 3094 3092 3092 3090 3087 3085 3082 3079 3074 3072 3070 3070 3070 3069 3069 3071 3070 3068 3067 3067 3065 3063 3060 3060 3057 3054 3050 3047 3044 3042 3039 3038 3037 3032 3031 3031 3025 3015 3004 2992 2981 2968
3095 3095 3093 3092 3091 3088 3087 3085 3081 3078 3074 3070 3066 3064 3066 3065 3066 3067 3067 3068 3066 3065 3064 3063 3060 3059 3058 3055 3051 3047 3044 3041 3038 3038 3038 3037 3035 3030 3026 3021 3013 3000 2991 2980 2969
3091 3090 3090 3088 3086 3085 3085 3081 3079 3078 3074 3068 3065 3064 3064 3066 3066 3066 3065 3064 3063 3063 3065 3062 3059 3057 3056 3053 3050 3049 3042 3039 3038 3037 3037 3036 3034 3028 3024 3013 3006 3000 2991 2982 2971
3087 3086 3086 3084 3083 3082 3081 3079 3077 3078 3070 3066 3064 3063 3064 3064 3064 3062 3063 3063 3062 3060 3060 3059 3057 3057 3054 3051 3049 3045 3040 3039 3038 3037 3037 3036 3036 3030 3023 3016 3010 3004 2996 2983 2974
3079 3079 3082 3079 3079 3078 3077 3076 3077 3072 3070 3066 3063 3062 3061 3061 3061 3060 3060 3061 3060 3060 3057 3057 3056 3055 3054 3051 3048 3047 3039 3038 3044 3041 3041 3034 3034 3031 3028 3022 3013 3004 2997 2987 2978
3073 3074 3075 3075 3074 3073 3072 3073 3072 3066 3065 3063 3061 3060 3059 3059 3059 3058 3058 3058 3057 3058 3056 3056 3054 3054 3053 3051 3049 3045 3043 3043 3052 3052 3040 3034 3034 3032 3029 3024 3017 3010 3002 2994 2982
3068 3068 3068 3068 3068 3069 3070 3068 3066 3064 3063 3061 3059 3057 3056 3055 3058 3057 3056 3056 3055 3056 3057 3055 3054 3053 3052 3051 3050 3047 3046 3046 3045 3044 3043 3036 3034 3032 3028 3026 3017 3010 3004 2994 2984
3059 3058 3059 3060 3062 3064 3064 3062 3061 3061 3059 3058 3058 3056 3054 3053 3054 3054 3054 3054 3054 3054 3054 3054 3053 3052 3051 3051 3051 3049 3048 3046 3045 3053 3054 3035 3033 3030 3026 3021 3016 3009 3002 2997 2989
3053 3050 3054 3055 3056 3057 3056 3056 3056 3056 3056 3056 3054 3053 3051 3050 3051 3052 3052 3053 3053 3053 3052 3052 3052 3054 3051 3051 3050 3050 3048 3048 3048 3048 3054 3050 3034 3031 3027 3023 3017 3012 3007 3000 2992
3046 3048 3049 3048 3052 3049 3050 3051 3052 3051 3051 3051 3050 3049 3047 3047 3048 3050 3051 3051 3051 3051 3051 3050 3050 3049 3051 3050 3050 3050 3048 3048 3048 3049 3047 3046 3037 3031 3028 3024 3020 3015 3010 3006 2997
3038 3039 3042 3042 3045 3044 3046 3047 3046 3047 3046 3046 3046 3045 3043 3044 3046 3047 3048 3049 3049 3050 3049 3050 3048 3048 3049 3053 3050 3048 3047 3046 3047 3046 3044 3045 3036 3032 3027 3024 3021 3016 3012 3008 3002
3033 3034 3034 3037 3037 3039 3041 3041 3042 3041 3041 3041 3042 3041 3040 3040 3042 3044 3045 3047 3047 3048 3048 3049 3047 3047 3050 3048 3048 3047 3046 3045 3045 3044 3041 3038 3035 3033 3028 3025 3020 3016 3013 3009 3004
3023 3025 3028 3027 3029 3032 3036 3035 3036 3037 3037 3037 3036 3036 3036 3036 3038 3041 3043 3044 3045 3046 3047 3047 3046 3046 3047 3046 3045 3044 3043 3043 3041 3041 3039 3036 3032 3030 3026 3022 3019 3015 3012 3010 3007
3020 3017 3022 3023 3025 3026 3028 3030 3031 3031 3032 3032 3032 3032 3032 3033 3037 3039 3041 3042 3043 3044 3044 3045 3044 3044 3044 3043 3043 3042 3040 3040 3039 3037 3036 3033 3030 3028 3024 3021 3019 3017 3014 3010 3007
3011 3015 3017 3016 3018 3020 3021 3024 3026 3027 3028 3028 3029 3029 3028 3031 3034 3036 3038 3040 3041 3042 3042 3043 3043 3043 3042 3042 3041 3040 3038 3038 3036 3035 3035 3032 3030 3026 3024 3020 3019 3017 3013 3010 3008